Estación Meteorológica Peña el Pijo (Robertgarden) [ 07/11/20 04:02:39 CEST ]

Fecha Hora Presion(HPa) Temp (°C) Humedad % Rocio (°C) Viento ( m/s) Direccion Lluvia 1Hora(mm) Lluvia 24H(mm) LLuvia Total(mm)
2019-Dec-14 01:08:46 1007.800 - - - - S     39.88
2019-Dec-14 02:11:57 1007.700 - - - - S     39.88
2019-Dec-14 03:09:16 1007.600 - - - - S     39.88
2019-Dec-14 04:09:19 1007.300 - - - - S     39.88
2019-Dec-14 05:09:28 1007.300 - - - - S     39.88
2019-Dec-14 06:09:26 1007.200 - - - - S     39.88
2019-Dec-14 07:09:13 1007.300 - - - - S     39.88
2019-Dec-14 08:09:18 1007.400 - - - - S     39.88
2019-Dec-14 09:09:26 1007.700 - - - - S     39.88
2019-Dec-14 10:09:23 1007.800 - - - - S     39.88
2019-Dec-14 11:09:06 1008.000 - - - - S     39.88
2019-Dec-14 12:08:57 1008.200 - - - - S     39.88
2019-Dec-14 13:09:24 1007.000 - - - - S     39.88
2019-Dec-14 14:09:07 1006.600 - - - - S     39.88
2019-Dec-14 15:09:20 1006.100 - - - - S     39.88
2019-Dec-14 16:09:29 1006.300 - - - - S     39.88
2019-Dec-14 17:09:20 1006.500 - - - - S     39.88
2019-Dec-14 18:08:53 1006.800 - - - - S     39.88
2019-Dec-14 19:09:07 1007.200 - - - - S     39.88
2019-Dec-14 20:08:57 1007.100 - - - - S     39.88
2019-Dec-14 21:09:12 1006.900 - - - - S     39.88
2019-Dec-14 22:08:51 1007.300 - - - - S     39.88
2019-Dec-14 23:09:18 1006.800 - - - - S     39.88

Temperatura Máxima:    Temperatura Mínima:
Presión Máxima:1008.200 Hpa    Presión Mínima:1006.100 Hpa


Volver